Location: Asheville, NC
(35.6000°N, 82.5500°W)
Time: 03:22:05
(UTC-04:00)

ITAMSAT 1 - Pass Details

Date: 16 March 2018
Orbit: 784 x 796 km, 98.9° (Epoch: 17 June)

Event Time Altitude Azimuth Distance (km) Brightness Sun altitude
Rises 04:44:50 0° 25° (NNE) 3,299 11.5 -35.2°
Reaches altitude 10° 04:47:27 10° 36° (NE) 2,364 10.8 -34.8°
Maximum altitude 04:52:00 30° 97° (E) 1,385 9.3 -33.9°
Enters shadow 04:52:52 29° 115° (ESE) 1,431 9.2 -33.8°
